This demonstration page uses our WeatherBlox Daily Observations layout. Learn more.

39.51506, -84.39828

Hourly Observations for November 25, 2019

Temp ( °F °C ) Dew Point ( °F °C ) Humidity (%) Winds ( mph kmh ) Pressure ( in mb ) Visibility ( mi km ) Precip ( " mm )
12:15 am 00:15 Clear 29 -1.4 29 -1.8 97 97 WSW 5 7 29.85 1011 7 11.26538 0 0
12:35 am 00:35 Clear with Mist and Fog 31 -0.7 30 -1 98 98 SW 3 6 29.85 1011 7 11.26538 0 0
12:55 am 00:55 Mostly Cloudy with Mist and Fog 29 -1.7 28 -2 98 98 Calm 29.85 1011 0.75 1.207005 0 0
1:15 am 01:15 Clear with Mist and Fog 32 -0.2 31 -0.4 99 99 S 3 6 29.85 1011 5 8.0467 0 0
1:35 am 01:35 Clear with Mist and Fog 26 -3.5 25 -3.9 97 97 SSW 5 7 29.83 1010 4 6.43736 0 0
1:55 am 01:55 Clear with Mist and Fog 29 -1.8 28 -2.1 98 98 S 6 9 29.83 1010 3.5 5.63269 0 0
2:15 am 02:15 Clear with Mist and Fog 30 -0.9 30 -1.1 99 99 S 6 9 29.85 1011 7 11.26538 0 0
2:35 am 02:35 Partly Cloudy 33 0.3 32 0 98 98 SSW 3 6 29.85 1011 10 16.0934 0 0
2:55 am 02:55 Mostly Cloudy 31 -0.4 31 -0.8 97 97 SSW 3 6 29.85 1011 7 11.26538 0 0
3:15 am 03:15 Partly Cloudy with Mist and Fog 33 0.6 33 0.4 99 99 SSW 3 6 29.85 1011 7 11.26538 0 0
3:35 am 03:35 Clear with Mist and Fog 30 -1.1 29 -1.4 98 98 SW 3 6 29.85 1011 4 6.43736 0 0
3:55 am 03:55 Clear with Mist and Fog 29 -1.7 28 -2.1 97 97 S 3 6 29.83 1010 5 8.0467 0 0
4:15 am 04:15 Clear with Mist and Fog 30 -0.9 30 -1.1 99 99 WSW 3 6 29.83 1010 5 8.0467 0 0
4:35 am 04:35 Clear with Mist and Fog 31 -0.8 30 -1.1 98 98 SSW 3 6 29.83 1010 7 11.26538 0 0
4:55 am 04:55 Clear with Mist and Fog 32 0 32 -0.2 99 99 SSW 3 6 29.83 1010 5 8.0467 0 0
5:15 am 05:15 Clear with Mist and Fog 31 -0.6 31 -0.8 99 99 SW 5 7 29.83 1010 5 8.0467 0 0
5:35 am 05:35 Clear with Mist and Fog 29 -1.8 28 -2.1 98 98 SW 3 6 29.83 1010 3.5 5.63269 0 0
5:55 am 05:55 Clear with Mist and Fog 31 -0.6 31 -0.8 99 99 SSW 6 9 29.83 1010 5 8.0467 0 0
6:15 am 06:15 Clear with Mist and Fog 30 -1 30 -1.2 99 99 SSW 6 9 29.83 1010 5 8.0467 0 0
6:35 am 06:35 Clear with Mist and Fog 31 -0.6 31 -0.7 99 99 SSW 6 9 29.83 1010 5 8.0467 0 0
6:55 am 06:55 Clear with Mist and Fog 31 -0.7 30 -0.9 99 99 SSW 5 7 29.83 1010 5 8.0467 0 0
7:15 am 07:15 Clear with Mist and Fog 32 0 32 -0.2 99 99 SSW 6 9 29.85 1011 5 8.0467 0 0
7:35 am 07:35 Sunny with Mist and Fog 33 0.5 32 0.2 98 98 SSW 5 7 29.85 1011 7 11.26538 0 0
7:55 am 07:55 Sunny with Mist and Fog 33 0.6 33 0.3 98 98 SSW 5 7 29.85 1011 5 8.0467 0 0
8:15 am 08:15 Sunny with Mist and Fog 34 1.1 33 0.7 97 97 SSW 6 9 29.85 1011 7 11.26538 0 0
8:35 am 08:35 Sunny 36 2 35 1.5 97 97 SSW 5 7 29.83 1010 7 11.26538 0 0
8:55 am 08:55 Sunny 38 3.5 36 2.4 93 93 S 10 17 29.83 1010 10 16.0934 0 0
9:15 am 09:15 Sunny 40 4.3 37 2.8 90 90 S 10 17 29.83 1010 10 16.0934 0 0
9:35 am 09:35 Sunny 41 5.1 38 3.2 88 88 SSW 10 17 29.83 1010 10 16.0934 0 0
9:55 am 09:55 Sunny 42 5.6 38 3.2 85 85 SSW 9 15 29.83 1010 10 16.0934 0 0
10:15 am 10:15 Sunny 44 6.4 38 3.6 82 82 SSW 12 19 29.83 1010 10 16.0934 0 0
10:35 am 10:35 Sunny 45 7.3 39 3.9 79 79 S 10 17 29.83 1010 10 16.0934 0 0
10:55 am 10:55 Sunny 47 8.4 39 4.1 75 75 SSW 13 20 29.83 1010 10 16.0934 0 0
11:15 am 11:15 Sunny 48 9 39 4 71 71 SSW 13 20 29.83 1010 10 16.0934 0 0
11:35 am 11:35 Sunny 50 9.8 39 4.1 68 68 SSW 12 19 29.83 1010 10 16.0934 0 0
11:55 am 11:55 Sunny 51 10.5 40 4.2 65 65 S 12 19 29.8 1009 10 16.0934 0 0
12:15 pm 12:15 Sunny 53 11.4 40 4.4 62 62 SSW 13 20 29.8 1009 10 16.0934 0 0
12:35 pm 12:35 Sunny 53 11.5 40 4.4 62 62 S 12 19 29.77 1008 10 16.0934 0 0
12:55 pm 12:55 Sunny 53 11.7 40 4.5 62 62 S 13 20 29.77 1008 10 16.0934 0 0
1:15 pm 13:15 Sunny 54 12.4 40 4.5 59 59 S 13 20 29.77 1008 10 16.0934 0 0
1:35 pm 13:35 Sunny 55 12.6 40 4.4 58 58 S 15 24 29.77 1008 10 16.0934 0 0
1:55 pm 13:55 Sunny 56 13.3 40 4.3 55 55 SSW 17 28 29.74 1007 10 16.0934 0 0
2:15 pm 14:15 Sunny 57 13.8 40 4.4 53 53 SSW 16 26 29.74 1007 10 16.0934 0 0
2:35 pm 14:35 Sunny 56 13.2 40 4.5 56 56 S 13 20 29.74 1007 10 16.0934 0 0
2:55 pm 14:55 Sunny 57 13.9 40 4.7 54 54 SSW 10 17 29.74 1007 10 16.0934 0 0
3:15 pm 15:15 Sunny 58 14.3 40 4.7 53 53 S 13 20 29.74 1007 10 16.0934 0 0
3:35 pm 15:35 Sunny 58 14.3 41 4.8 53 53 S 12 19 29.74 1007 10 16.0934 0 0
3:55 pm 15:55 Sunny 58 14.4 41 4.8 53 53 S 12 19 29.74 1007 10 16.0934 0 0
4:15 pm 16:15 Sunny 58 14.2 40 4.4 52 52 SSW 15 24 29.74 1007 10 16.0934 0 0
4:35 pm 16:35 Sunny 57 13.8 40 4.4 53 53 SSW 14 22 29.74 1007 10 16.0934 0 0
4:55 pm 16:55 Sunny 56 13.1 40 4.4 56 56 SSW 13 20 29.74 1007 10 16.0934 0 0
5:15 pm 17:15 Sunny 54 12 40 4.4 60 60 S 10 17 29.77 1008 10 16.0934 0 0
5:35 pm 17:35 Clear 52 11.1 40 4.4 64 64 S 10 17 29.77 1008 10 16.0934 0 0
5:55 pm 17:55 Clear 51 10.6 40 4.4 66 66 S 8 13 29.8 1009 10 16.0934 0 0
6:15 pm 18:15 Clear 47 8.4 39 3.8 73 73 SSW 6 9 29.8 1009 10 16.0934 0 0
6:35 pm 18:35 Clear 48 8.7 39 4 73 73 SW 6 9 29.8 1009 10 16.0934 0 0
6:55 pm 18:55 Clear 46 7.6 38 3.5 76 76 SSW 5 7 29.8 1009 10 16.0934 0 0
7:15 pm 19:15 Clear 45 7.4 39 3.8 78 78 SSW 7 11 29.8 1009 10 16.0934 0 0
7:35 pm 19:35 Clear 46 7.8 39 4.1 78 78 SSW 6 9 29.8 1009 10 16.0934 0 0
7:55 pm 19:55 Clear 44 6.6 38 3.5 81 81 SSW 6 9 29.8 1009 10 16.0934 0 0
8:15 pm 20:15 Clear 47 8.1 39 4 76 76 SSW 5 7 29.8 1009 10 16.0934 0 0
8:35 pm 20:35 Clear 44 6.7 38 3.6 81 81 SSW 5 7 29.8 1009 10 16.0934 0 0
8:55 pm 20:55 Clear 44 6.9 39 4.1 83 83 WSW 3 6 29.83 1010 10 16.0934 0 0
9:15 pm 21:15 Clear 41 5.2 37 2.9 85 85 SW 5 7 29.83 1010 10 16.0934 0 0
9:35 pm 21:35 Clear 38 3.2 36 2.1 93 93 SW 6 9 29.83 1010 10 16.0934 0 0
9:55 pm 21:55 Clear 41 5.1 39 3.7 91 91 SSW 5 7 29.83 1010 10 16.0934 0 0
10:15 pm 22:15 Clear 43 6 39 4 87 87 Calm 29.83 1010 10 16.0934 0 0
10:35 pm 22:35 Clear 44 6.4 39 3.9 84 84 Calm 29.85 1011 10 16.0934 0 0
10:55 pm 22:55 Clear 44 6.4 39 3.9 84 84 SW 3 6 29.85 1011 10 16.0934 0 0
11:15 pm 23:15 Clear 40 4.2 37 2.6 89 89 SSW 5 7 29.85 1011 10 16.0934 0 0
11:35 pm 23:35 Clear 35 1.9 34 1.2 95 95 SSW 5 7 29.88 1012 10 16.0934 0 0
11:55 pm 23:55 Clear 40 4.4 38 3.6 95 95 SSW 6 9 29.85 1011 10 16.0934 0 0

Powered by AerisWeather